軌道要素
Epoch 2024 Sept. 7.0 TT = JDT 2460560.5
T 2024 Aug. 31.23839 TT MPCW
q 3.1398015 (2000.0) P Q
n 0.12176599 Peri. 196.81018 +0.98840040 +0.15048293
a 4.0313643 Node 154.50785 -0.13329027 +0.92419256
e 0.2211566 Incl. 2.72782 -0.07278981 +0.35103133
P 8.09
From 116 observations 2008 Sept. 2-2016 Dec. 27, mean residual 0".5.
|